Home   Weather   McKinney   Past weeks
Flag for USA

Past Weather in McKinney, Texas, USA — Yesterday and Last 2 Weeks

Now
87 °F

Sunny.


Feels Like: 88 °F
Forecast: 87 / 54 °F
Wind: 23 mph from South

Location: McKinney Municipal Airport

Current Time: Oct 20, 2019 at 5:27:00 pm

Latest Report: Oct 20, 2019 at 3:53 pm


Visibility: 10 mi

Pressure: 29.65 "Hg

Humidity: 45%

Dew Point: 63 °F

Location of McKinneyLocation

Past Weather in McKinney — Graph

°F

McKinney Temperature Yesterday

Maximum temperature yesterday: 83 °F (at 3:53 pm)
Minimum temperature yesterday: 57 °F (at 2:53 am)
Average temperature yesterday: 69 °F

High & Low Weather Summary for the Past Weeks

 TemperatureHumidityPressure
High96 °F (Oct 6, 2:53 pm)97% (Oct 15, 3:53 am)30.34 "Hg (Oct 15, 3:53 am)
Low35 °F (Oct 12, 5:53 am)17% (Oct 12, 1:53 pm)29.65 "Hg (Oct 20, 3:53 pm)
Average66 °F62%29.98 "Hg
* Reported Oct 5 3:53 pm — Oct 20 3:53 pm, McKinney. Weather by CustomWeather, © 2019

Note: Actual official high and low records may vary slightly from our data, if they occured in-between our weather recording intervals... More about our weather records

Advertising

McKinney Weather History for the Previous 24 Hours

Scroll right to see more
 ConditionsComfort  
Time TempWeatherWind HumidityBarometerVisibility
3:53 pm
Sun, Oct 20
87 °FSunny.23 mph45%29.65 "Hg10 mi
2:53 pm85 °FSunny.17 mph45%29.67 "Hg10 mi
1:53 pm83 °FSunny.12 mph44%29.71 "Hg10 mi
12:53 pm81 °FSunny.13 mph44%29.76 "Hg10 mi
11:53 am77 °FSunny.7 mph56%29.79 "Hg10 mi
10:53 am72 °FSunny.9 mph66%29.82 "Hg10 mi
9:53 am67 °FSunny.No wind76%29.83 "Hg10 mi
8:53 am58 °FSunny.No wind90%29.83 "Hg10 mi
7:53 am52 °FSunny.No wind93%29.82 "Hg7 mi
6:53 am52 °FClear.No wind93%29.82 "Hg10 mi
5:53 am53 °FClear.No wind93%29.81 "Hg10 mi
4:53 am56 °FClear.No wind87%29.79 "Hg10 mi
3:53 am56 °FClear.No wind87%29.78 "Hg10 mi
2:53 am57 °FClear.7 mph87%29.79 "Hg10 mi
1:53 am56 °FClear.5 mph90%29.80 "Hg10 mi
12:53 am58 °FClear.6 mph84%29.81 "Hg10 mi
11:53 pm
Sat, Oct 19
62 °FClear.8 mph75%29.80 "Hg10 mi
10:53 pm62 °FClear.3 mph73%29.80 "Hg10 mi
9:53 pm63 °FClear.No wind78%29.79 "Hg10 mi
8:53 pm68 °FClear.3 mph65%29.78 "Hg10 mi
7:53 pm72 °FClear.7 mph55%29.76 "Hg10 mi
6:53 pm76 °FClear.9 mph50%29.75 "Hg10 mi
5:53 pm80 °FSunny.9 mph45%29.72 "Hg10 mi
Weather by CustomWeather, © 2019

See weather overview